Toronto Pearson, Ontario

12:02 AM EDT on May 29, 2017 (GMT -0400)
Toronto-Pearson International

Weather History for CYYZ - March, 2013

Change the Weather History Date:

Monday, March 18, 2013

  Actual Average Record
Temperature  
Mean Temperature 24 °F -  
Max Temperature 32 °F 47 °F 64 °F (2012)
Min Temperature 17 °F 29 °F 16 °F (2014)
Degree Days  
Heating Degree Days 40    
Moisture  
Dew Point 17 °F    
Average Humidity 65    
Maximum Humidity 100    
Minimum Humidity 38    
Precipitation  
Precipitation 0.12 in 0.08 in - ()
Sea Level Pressure  
Sea Level Pressure 30.08 in    
Wind  
Wind Speed 13 mph ()    
Max Wind Speed 28 mph    
Max Gust Speed 34 mph    
Visibility 8.8 miles    
Events Rain , Snow    
Averages and records for this station are not official NWS values.
T = Trace of Precipitation, MM = Missing Value Source: Averaged Metar Reports

Daily Weather History Graph

Daily Weather History Graph

Search for Another Location

Airport or City:

Trip Planner

Search our weather history database for the weather conditions in past years. The results will help you decide how hot, cold, wet, or windy it might be!

Date:

Astronomy

Mar. 18, 2013 Rise Set
Actual Time 7:24 AM EDT 7:28 PM EDT
Civil Twilight 6:56 AM EDT 7:57 PM EDT
Nautical Twilight 6:22 AM EDT 8:30 PM EDT
Astronomical Twilight 5:48 AM EDT 9:05 PM EDT
Moon 11:12 AM EDT (3/18) 1:37 AM EDT (3/18)
Length of Visible Light 13h 01m
Length of Day
12h 03m
Waxing Crescent, 40% of the Moon is Illuminated
Mar 18
Waxing Crescent
Mar 19
First Quarter
Mar 27
Full
Apr 3
Last Quarter
Apr 10
New

Hourly Weather History & Observations

Time (EDT) Temp. Windchill Dew Point Humidity Pressure Visibility Wind Dir Wind Speed Gust Speed Precip Events Conditions
12:00 AM 19.4 °F 12.8 °F 6.8 °F 58% 30.35 in 15.0 mi NNE 4.6 mph - N/A   Clear
1:00 AM 19.4 °F 12.8 °F 8.6 °F 63% 30.34 in 15.0 mi NE 4.6 mph - N/A   Clear
2:00 AM 20 °F - 6 °F 41% 30.32 in 15 mi NE 6.9 mph - -  
2:00 AM 19.4 °F 10.4 °F 6.8 °F 58% 30.32 in 15.0 mi NE 6.9 mph - N/A   Clear
3:00 AM 19.4 °F 11.5 °F 5.0 °F 54% 30.31 in 15.0 mi ENE 5.8 mph - N/A   Clear
4:00 AM 19.4 °F 12.8 °F 6.8 °F 58% 30.30 in 15.0 mi ENE 4.6 mph - N/A   Partly Cloudy
5:00 AM 21.2 °F 11.7 °F 8.6 °F 58% 30.28 in 15.0 mi ENE 8.1 mph - N/A   Clear
6:00 AM 21.2 °F 13.6 °F 10.4 °F 63% 30.27 in 15.0 mi ENE 5.8 mph - N/A   Partly Cloudy
7:00 AM 26.6 °F 15.7 °F 14.0 °F 59% 30.28 in 15.0 mi SE 12.7 mph 18.4 mph N/A   Mostly Cloudy
8:00 AM 26 °F - 11 °F 38% 30.25 in 15 mi ESE 16.1 mph - -   Overcast
8:00 AM 26.6 °F 16.2 °F 10.4 °F 51% 30.25 in 15.0 mi ESE 11.5 mph 21.9 mph N/A   Overcast
9:00 AM 28.4 °F 16.6 °F 12.2 °F 51% 30.20 in 15.0 mi East 16.1 mph 23.0 mph N/A   Overcast
10:00 AM 28.4 °F 15.1 °F 15.8 °F 59% 30.19 in 15.0 mi East 20.7 mph 28.8 mph N/A   Overcast
11:00 AM 30.2 °F 17.8 °F 14.0 °F 51% 30.13 in 15.0 mi East 19.6 mph 31.1 mph N/A   Overcast
12:00 PM 32.0 °F 20.5 °F 14.0 °F 48% 30.13 in 15.0 mi East 18.4 mph 29.9 mph N/A   Overcast
1:00 PM 30.2 °F 18.9 °F 17.6 °F 60% 30.08 in 15.0 mi East 16.1 mph 23.0 mph N/A   Overcast
2:00 PM 31 °F - 17 °F 42% 30.03 in 15 mi East 21.9 mph - -   Overcast
2:00 PM 30.2 °F 16.2 °F 17.6 °F 60% 30.03 in 15.0 mi East 25.3 mph 34.5 mph N/A   Overcast
3:00 PM 30.2 °F 16.5 °F 17.6 °F 60% 29.98 in 15.0 mi East 24.2 mph 29.9 mph N/A   Overcast
3:20 PM 30.2 °F 16.8 °F - N/A% - 15.0 mi East 23.0 mph 33.4 mph N/A Snow Light Snow
4:00 PM 32.0 °F 19.5 °F 17.6 °F 55% 29.95 in 15.0 mi East 21.9 mph 32.2 mph N/A   Overcast
4:36 PM 32.0 °F 18.9 °F - N/A% - 10.0 mi East 24.2 mph - N/A Snow Light Snow
5:00 PM 32.0 °F 19.2 °F 23.0 °F 69% 29.88 in 3.0 mi ESE 23.0 mph 32.2 mph N/A Snow Light Snow
5:05 PM 32.0 °F 18.1 °F - N/A% - 2.0 mi East 27.6 mph 34.5 mph N/A Snow Light Snow
5:41 PM 30.2 °F 17.1 °F - N/A% - 1.2 mi ESE 21.9 mph 31.1 mph N/A Snow Light Snow
6:00 PM 30.2 °F 17.1 °F 28.4 °F 93% 29.86 in 1.0 mi ESE 21.9 mph 29.9 mph N/A Snow Light Snow
6:09 PM 30.2 °F 17.1 °F - N/A% - 2.0 mi ESE 21.9 mph 29.9 mph N/A Snow Light Snow
7:00 PM 30.2 °F 17.8 °F 28.4 °F 93% 29.81 in 1.8 mi East 19.6 mph 31.1 mph N/A Snow Light Snow
7:33 PM 30.2 °F 17.8 °F - N/A% - 0.8 mi ESE 19.6 mph 27.6 mph N/A Snow Light Snow
7:47 PM 30.2 °F 18.5 °F - N/A% - 1.2 mi East 17.3 mph 24.2 mph N/A Snow Light Snow
8:00 PM 30 °F - 28 °F 89% 29.78 in 1 mi East 20.7 mph - - Snow Light Snow
8:00 PM 30.2 °F 17.1 °F 28.4 °F 93% 29.78 in 1.2 mi ESE 21.9 mph 29.9 mph N/A Snow Light Snow
8:20 PM 30.2 °F 18.9 °F - N/A% - 1.5 mi East 16.1 mph 25.3 mph N/A Snow Light Snow
8:45 PM 30.2 °F 19.3 °F - N/A% - 1.0 mi ESE 15.0 mph - N/A Snow Light Snow
9:00 PM 30.2 °F 18.9 °F 28.4 °F 93% 29.75 in 1.8 mi East 16.1 mph 23.0 mph N/A Snow Light Snow
9:09 PM 30.2 °F 18.9 °F - N/A% - 2.5 mi ESE 16.1 mph 23.0 mph N/A Rain Light Ice Pellets
9:45 PM 30.2 °F 18.1 °F - N/A% - 5.0 mi East 18.4 mph 27.6 mph N/A Rain Light Freezing Rain
10:00 PM 30.2 °F 17.8 °F 30.2 °F 100% 29.71 in 6.0 mi East 19.6 mph 27.6 mph N/A Rain Light Freezing Rain
10:15 PM 32.0 °F 21.2 °F - N/A% - 4.0 mi ESE 16.1 mph 27.6 mph N/A Snow Light Snow
11:00 PM 32.0 °F 21.6 °F 30.2 °F 93% 29.67 in 2.5 mi ESE 15.0 mph - N/A Rain Light Freezing Rain
11:32 PM 32.0 °F 23.0 °F - N/A% - 2.0 mi ESE 11.5 mph 19.6 mph N/A Rain Light Freezing Rain
11:47 PM 32.0 °F 23.0 °F - N/A% - 4.0 mi ESE 11.5 mph - N/A Rain Light Freezing Rain